SL-8 R/B

Satellite information

Favourite Embed

Satellite Type and Status

ROCKET BODYIN ORBIT

Key statistics

Satellite SL-8 R/B at a glance.

Uptime

11407

Days in orbit

Revolutions

≈ 13.7

Per day

Orbit

LEO

Low Earth Orbit

Inclination

74.0

Latest

Satellite identification and parameters

Extended collection of information and parameters for SL-8 R/B.

Object identification

Identified? True

Debris? False

Object name: SL-8 R/B

International designator: 1994-045B

Object number (NORAD): 23190

Object ID (CCSDS): 23190

Country: COMMONWEALTH OF INDEPENDENT STATES (CIS)

Current information (Y/N): Y

RCS size: LARGE

Orbital parameters

Period: 104.776 minutes

Inclination: 74.0278 deg

SMA: 7362.108 km

Apoapsis: 997.463 km

Periapsis: 970.483 km

RAAN: 84.8489 deg

Eccentricy: 0.00183239

Argument of periapsis: 105.6002 deg

Mean anomaly: 254.7142 deg

Mean motion: 13.74356796 rev/day

Mean motion (dot): 0.00000141 rev/day2

B* drag term: 0.00017275108 1/REarth

Two-line elements (TLE)

Creation date: Oct. 25, 2025, 3:11 a.m.

Reference frame: TEME

Reference center: EARTH

Epoch: Oct. 24, 2025, 9:43 p.m. UTC

TLE line 0: 0 SL-8 R/B

TLE line 1: 1 23190U 94045B 25297.90527592 .00000141 00000-0 17275-3 0 9992

TLE line 2: 2 23190 74.0278 84.8489 0018324 105.6002 254.7142 13.74356796566168

Live tracking on map

Real-time ground track for satellite SL-8 R/B.

In-orbit conjunctions

A list of the most updated potential collisions computed for object SL-8 R/B.

Target Orbit TCA Probability of collision Miss distance Type
FENGYUN 1C DEB SSO 2025-03-06 18:25:06 0.0001174531 189.0 (m) DEBRIS

Associated space launch

The satellite Kosmos 2285 was an experimental earth observation satellite. It was reportedly a prototype for the planned Obzor series of earth observation satellites, which was eventually not developed.

SL-8 R/B was lifted into orbit during the mission ‘Kosmos-3M | Obzor Test’, on board a Kosmos-3M space rocket.

The launch took place on Aug. 2, 1994, 8 p.m. from 132/1 (132L).

For more information about the launch, click the button.

Launch to space Kosmos-3M | Obzor Test
Kosmos-3M | Obzor Test

Agency: N/A

Status: Launch Successful

Launch date: Aug. 2, 1994, 8 p.m. UTC

Rocket: Kosmos-3M

Launch pad: 132/1 (132L)

Location: Plesetsk Cosmodrome, Russian Federation

...

Latest news about this satellite

There are no fresh news available about this satellite. Check back as we update our databases every day.


Newsletter sign-up

Weekly statistics, charts and insights to help you stay on top of the space industry.